This is the latest recevied weather packets stored in our database for station/object N3WPH. If no packets are shown the sender has not sent any weather packets the latest 10 day(s).
| Time | Temp. | Humidity | Pressure | Rain* | Wind** | Luminosity | Snow |
|---|---|---|---|---|---|---|---|
| 1777085547 | 12.22° C | 49% | 1010.8 hPa | 0 mm | - | 0 W/m² | - |
| 1777085243 | 12.22° C | 61% | 1010.8 hPa | 0 mm | - | 0 W/m² | - |
| 1777084939 | 12.22° C | 58% | 1010.8 hPa | 0 mm | - | 0 W/m² | - |
| 1777084635 | 12.78° C | 60% | 1010.7 hPa | 0 mm | - | 0 W/m² | - |
| 1777084330 | 12.78° C | 62% | 1010.9 hPa | 0 mm | - | 0 W/m² | - |
| 1777084025 | 12.78° C | 62% | 1010.8 hPa | 0 mm | - | 0 W/m² | - |
| 1777083723 | 12.78° C | 61% | 1010.8 hPa | 0 mm | - | 0 W/m² | - |
| 1777083419 | 13.33° C | 60% | 1010.8 hPa | 0 mm | - | 0 W/m² | - |
| 1777083116 | 13.33° C | 55% | 1010.7 hPa | 0 mm | - | 0 W/m² | - |
| 1777082815 | 13.33° C | 53% | 1010.6 hPa | 0 mm | - | 0 W/m² | - |
| 1777082511 | 13.89° C | 51% | 1010.7 hPa | 0 mm | - | 0 W/m² | - |
| 1777082206 | 13.89° C | 52% | 1010.5 hPa | 0 mm | - | 0 W/m² | - |
| 1777081901 | 13.89° C | 55% | 1010.5 hPa | 0 mm | - | 0 W/m² | - |
| 1777081596 | 14.44° C | 48% | 1010.5 hPa | 0 mm | - | 0 W/m² | - |
| 1777081293 | 14.44° C | 47% | 1010.5 hPa | 0 mm | - | 0 W/m² | - |
| 1777080987 | 14.44° C | 54% | 1010.7 hPa | 0 mm | - | 0 W/m² | - |
| 1777080682 | 14.44° C | 51% | 1010.8 hPa | 0 mm | - | 0 W/m² | - |
| 1777080377 | 15° C | 51% | 1010.6 hPa | 0 mm | - | 0 W/m² | - |
| 1777080072 | 15° C | 47% | 1010.6 hPa | 0 mm | - | 0 W/m² | - |
| 1777079770 | 15° C | 49% | 1010.6 hPa | 0 mm | - | 0 W/m² | - |
| 1777079467 | 14.44° C | 52% | 1010.5 hPa | 0 mm | - | 0 W/m² | - |
| 1777079163 | 14.44° C | 49% | 1010.4 hPa | 0 mm | - | 0 W/m² | - |
| 1777078859 | 15° C | 52% | 1010.5 hPa | 0 mm | - | 0 W/m² | - |
| 1777078555 | 14.44° C | 46% | 1010.1 hPa | 0 mm | - | 0 W/m² | - |
| 1777078251 | 15° C | 46% | 1010.4 hPa | 0 mm | - | 0 W/m² | - |
* Rain latest hour (hover to see other rain measurements)
** Current wind speed in m/s (hover to see current wind gust speed)